Location: Unspecified
(51.5147°N, 7.4673°E)
Time: 03:33:18
(UTC+01:00)

Vanguard 1 Rocket - Pass Details

Date: 23 February 2026
Orbit: 653 x 4214 km, 34.3° (Epoch: 12 March)

Event Time Altitude Azimuth Distance (km) Brightness Sun altitude
Rises 18:55:39 0° 268° (W) 5,938 14.0 -9.4°
Reaches altitude 10° 19:00:37 10° 253° (WSW) 5,488 12.8 -10.2°
Maximum altitude 19:11:46 21° 213° (SSW) 5,624 11.8 -11.9°
Drops below altitude 10° 19:26:22 10° 176° (S) 7,272 11.9 -14.2°
Sets 19:34:58 0° 163° (SSE) 8,445 12.1 -15.5°
